Погода в Лебе

Польша     54°45′26″N   17°33′29″E
темп.,
°C
ветер,
м/с
пор.,
м/с
влажн.,
%
обл.,
%
осадки,
мм/ч
давл.,
гПа
погр.,
м
19 сентября, вс
вс1923:00+14св7864100 0.0 10181212
02:00+14св786593 0.1 10171008
05:00+13св995989 0.1 10181450
08:00+13св8106199 0.1 10181514
11:00+12св8865100 0.1 10181435
14:00+13св886579 0.1 10181380
17:00+13св7865100 0.0 10181342
20:00+13св7862100 0.1 10181342
20 сентября, пн
пн2023:00+13всв5662100 0.1 10191156
02:00+14св665995 0.1 10191126
05:00+13св6867100 0.1 1020913
08:00+12всв6769100 0.2 1021874
11:00+13св777160 0.3 10211093
14:00+13ссв676046 0.3 10211403
17:00+13ссв665897 0.0 10221505
20:00+13ссв665696 0.1 10221355
21 сентября, вт
вт2123:00+13с5659100 0.0 10231204
02:00+12с665989 0.1 10231246
05:00+13с665696 0.0 10231344
08:00+13ссз5560100 0.1 1024983
11:00+12ссз5564100 0.1 1025971
14:00+13сз5660100 0.2 10251188
17:00+13с8860100 0.6 10251397
20:00+13ссз6758100 0.7 10251383
22 сентября, ср
ср2223:00+12ссз556199 0.3 10251109
02:00+12с456120 0.4 10251084
05:00+12с2362100 0.0 1024972
08:00+12ю1163100 0.0 1024315
11:00+13юз2264100 0.0 1024365
14:00+14сз3362100 0.0 1023860
17:00+13ссз3364100 0.0 1022744
20:00+12в326655 0.0 1021344
23 сентября, чт
чт2323:00+11ююв3375100 0.0 1020160
02:00+10ююз447997 0.0 1018195
05:00+10ююз4581100 0.0 1016224
08:00+11ююз589234 0.1 1014261
11:00+14зюз81080100 0.0 1012894
14:00+14зюз101281100 0.1 10091026
17:00+14зюз111587100 1.9 10061068
20:00+14зсз101287100 7.1 1005920